Volver al catálogo

ARIANE 1 DEB

ActivoSSO
NORAD 17423·DEBRIS·🇫🇷 France

Lanzado Feb 22, 1986 desde Guiana Space Centre

Loading…

Próximos Pases (próximas 24 horas)

TLE

ActualizadoSource: Space-Track

Época: Sep 13, 2026, 00:08 UTC

1 17423U 86019FJ  26256.00606497 -.00000054  00000-0 -74537-5 0  9996
2 17423  98.7040 266.6317 0174725 144.0417 247.2304 14.02925452 27358

Sigue ARIANE 1 DEB en tiempo real con AllMySat

Download on the App Store